Location: Newark
(31.5350°N, 35.0986°E)
Time: 13:29:18
(UTC+00:00)

Explorer 7 - Pass Details

Date: 25 October 2019
Orbit: 485 x 680 km, 50.3° (Epoch: 20 November)

Event Time Altitude Azimuth Distance (km) Brightness Sun altitude
Rises 07:05:39 0° 255° (WSW) 2,611 10.0 35.3°
Reaches altitude 10° 07:08:12 10° 270° (W) 1,702 9.1 35.7°
Maximum altitude 07:11:20 24° 325° (NW) 1,065 8.0 36.1°
Drops below altitude 10° 07:14:25 10° 21° (NNE) 1,669 9.1 36.5°
Sets 07:16:53 0° 36° (NE) 2,546 10.1 36.9°
